Flag for France Weather past 2 weeks in Nantes, France

Now
59 °F

Clear.


Feels Like: 59 °F
Forecast: 54 / 76 °F
Wind: 5 mph from Northeast

Location: Nantes Airport

Current Time: Jul 31, 2014 at 3:44:47 AM

Latest Report: Jul 31, 2014 at 3:00 AM


Visibility: N/A

Pressure: 30.04 "Hg

Humidity: 88%

Dew point: 55 °F

Location of NantesLocation

Historic Weather in Nantes — Graph

°F

Nantes temperature yesterday

Maximum temperature yesterday: 77 °F (at 5:30 PM)
Minimum temperature yesterday: 54 °F (at 6:00 AM)
Average temperature yesterday: 66 °F

Past Weeks' High & Low Weather Summary

 TemperatureHumidityPressure
High95 °F (Jul 17, 6:30 PM)100% (Jul 16, 5:00 AM)30.18 "Hg (Jul 16, 5:00 AM)
Low54 °F (Jul 29, 7:00 AM)32% (Jul 17, 6:00 PM)29.74 "Hg (Jul 19, 2:30 AM)
Average70 °F71%29.99 "Hg
* Reported Jul 16 2:00 AM — Jul 31 2:30 AM, Nantes, Weather by CustomWeather, © 2014

Note: Actual official high and low records may vary slightly from our data, if they occured in-between our weather recording intervals... More about our weather records

Advertising

Nantes weather history for previous 24 hours

 ConditionsComfort  
Time TempWeatherWind HumidityBarometerVisibility
2:30 AM
Jul 31
61 °FClear.5 mph83%30.04 "HgN/A
2:00 AM59 °FPassing clouds.3 mph88%30.04 "HgN/A
1:30 AM59 °FClear.3 mph88%30.04 "Hg10 mi
1:00 AM61 °FClear.5 mph88%30.04 "Hg10 mi
12:30 AM61 °FPassing clouds.3 mph88%30.04 "HgN/A
12:00 AM61 °FClear.5 mph88%30.04 "Hg10 mi
11:30 PM
Jul 30
63 °FClear.3 mph77%30.04 "Hg10 mi
11:00 PM63 °FClear.5 mph77%30.04 "Hg10 mi
10:30 PM64 °FSunny.3 mph73%30.04 "Hg10 mi
10:00 PM66 °FSunny.3 mph68%30.04 "Hg10 mi
9:30 PM68 °FPassing clouds.7 mph69%30.04 "HgN/A
9:00 PM72 °FPassing clouds.9 mph61%30.04 "HgN/A
8:30 PM73 °FPassing clouds.8 mph61%30.01 "HgN/A
7:30 PM77 °FScattered clouds.3 mph54%30.01 "HgN/A
7:00 PM77 °FScattered clouds.5 mph54%30.04 "HgN/A
6:30 PM75 °FScattered clouds.3 mph54%30.04 "HgN/A
6:00 PM75 °FScattered clouds.5 mph54%30.04 "HgN/A
5:30 PM77 °FScattered clouds.3 mph54%30.04 "HgN/A
5:00 PM75 °FPartly sunny.5 mph57%30.04 "HgN/A
4:30 PM73 °FPartly sunny.7 mph61%30.04 "HgN/A
4:00 PM72 °FPartly sunny.7 mph65%30.04 "HgN/A
3:30 PM72 °FBroken clouds.7 mph65%30.04 "HgN/A
3:00 PM73 °FBroken clouds.7 mph61%30.04 "HgN/A
2:30 PM73 °FBroken clouds.6 mph61%30.04 "HgN/A
2:00 PM72 °FBroken clouds.8 mph69%30.04 "HgN/A
1:30 PM70 °FBroken clouds.8 mph69%30.04 "HgN/A
1:00 PM72 °FPartly sunny.3 mph65%30.04 "HgN/A
12:30 PM70 °FBroken clouds.5 mph73%30.04 "HgN/A
12:00 PM72 °FBroken clouds.3 mph65%30.04 "HgN/A
11:30 AM72 °FScattered clouds.3 mph65%30.04 "HgN/A
11:00 AM70 °FScattered clouds.5 mph73%30.04 "HgN/A
10:30 AM66 °FPartly sunny.2 mph83%30.07 "HgN/A
10:00 AM64 °FPartly sunny.6 mph88%30.04 "HgN/A
9:30 AM63 °FPartly sunny.5 mph88%30.07 "HgN/A
9:00 AM61 °FPartly sunny.5 mph94%30.04 "Hg5 mi
8:30 AM59 °FPartly sunny.3 mph94%30.04 "Hg5 mi
8:00 AM57 °FPartly sunny.No wind94%30.04 "Hg5 mi
7:30 AM55 °FPassing clouds.No wind100%30.04 "Hg6 mi
7:00 AM54 °FPassing clouds.No wind94%30.04 "HgN/A
6:30 AM54 °FFog.No wind94%30.04 "HgN/A
6:00 AM54 °FClear.No wind100%30.04 "Hg10 mi
5:30 AM55 °FClear.No wind88%30.04 "Hg10 mi
5:00 AM55 °FClear.No wind94%30.04 "Hg10 mi
4:30 AM55 °FClear.No wind94%30.04 "HgN/A
4:00 AM57 °FClear.2 mph88%30.04 "HgN/A
3:30 AM57 °FClear.3 mph88%30.04 "HgN/A
3:00 AM57 °FClear.3 mph88%30.04 "HgN/A
Weather by CustomWeather, © 2014

See weather overviewHow to use our weather pages